Wind_Speed
21 21 20 20 20 20 20 20 20 20 19 18 17 17 16 15 15 15 16 15 15 15 15 15 15 17 18 18 17 14 11 10 10 11 11 9 9 10 12 12 13 15 17 19 18 18 15 11 10 11 13 14 14 13 12 11 11 10 10 10 10 11
20 21 21 20 20 21 21 20 20 19 19 18 18 17 16 15 15 15 14 13 14 14 14 14 16 18 18 17 15 13 10 10 10 11 11 10 10 11 13 14 14 16 18 18 18 17 15 11 10 11 13 16 15 14 13 12 12 11 11 11 11 12
21 21 21 21 21 21 21 20 19 19 18 18 18 17 16 15 15 14 12 12 13 13 14 15 16 17 17 15 14 13 10 10 10 11 11 11 12 12 14 16 15 16 18 19 20 18 16 13 13 12 14 16 16 14 14 13 13 12 12 12 12 13
21 22 22 22 21 22 21 20 18 18 18 18 18 17 15 15 15 13 12 12 13 14 15 16 16 16 15 15 13 11 10 10 10 11 11 12 12 13 14 16 16 16 17 18 20 20 18 16 15 14 15 17 16 15 15 15 15 14 14 13 13 14
23 23 23 22 22 22 20 19 18 18 17 17 17 16 15 14 13 12 12 12 13 14 15 15 15 15 14 13 12 10 9 10 10 11 11 12 12 12 12 13 14 14 15 16 18 18 17 16 16 16 15 16 16 16 15 15 15 16 16 15 15 15
25 25 24 23 22 21 20 18 18 18 17 16 16 16 16 15 13 12 12 12 13 14 14 15 15 14 13 11 10 9 9 10 10 11 11 12 12 12 11 11 12 12 12 13 14 15 15 16 16 16 16 16 16 16 16 16 16 17 17 17 17 17
25 25 25 24 23 21 20 19 18 17 17 16 16 17 17 16 14 13 14 13 14 14 15 15 14 14 12 11 10 9 9 9 9 10 10 11 11 11 10 9 10 11 11 11 12 13 14 15 15 15 16 16 16 16 16 16 17 17 17 17 18 18
25 25 24 24 23 21 19 18 18 17 17 16 16 16 17 17 15 15 15 15 15 15 15 14 14 13 12 10 9 9 9 9 10 10 10 10 10 10 10 10 10 10 10 11 11 12 13 14 14 14 15 15 15 16 16 16 17 18 17 17 18 19
25 25 24 23 22 20 18 18 17 16 16 16 15 16 17 17 16 15 15 15 14 14 14 13 13 12 11 10 9 9 10 10 10 11 11 11 11 11 11 10 10 9 9 9 9 10 11 12 12 13 13 14 15 16 16 17 17 17 17 17 18 20
25 24 23 23 21 19 17 17 16 15 15 15 15 16 17 16 16 15 14 14 13 12 12 12 12 11 11 10 10 10 10 10 11 11 11 12 12 12 11 10 9 8 7 7 8 8 8 9 10 11 12 12 13 14 15 16 17 17 17 17 19 20
24 23 23 22 21 19 17 16 15 15 15 16 16 16 16 16 15 15 14 13 12 12 12 11 11 11 10 10 10 10 9 10 10 10 11 11 12 11 10 9 8 7 6 6 6 6 7 8 9 10 10 11 11 13 14 15 16 16 16 17 18 19
23 22 22 21 20 18 17 16 15 15 16 16 16 16 17 16 15 15 14 13 12 12 11 11 10 10 10 10 10 10 9 9 10 10 11 11 11 10 9 8 7 7 6 6 6 6 7 7 8 9 9 10 11 12 13 14 15 15 16 16 18 17
22 20 20 20 19 19 18 17 16 16 16 16 16 16 16 16 15 15 14 13 12 11 11 10 10 10 10 10 10 10 10 10 11 11 12 11 10 9 8 7 7 7 7 6 6 6 7 7 8 8 9 10 11 11 12 13 13 14 14 15 16 16
22 20 19 19 19 18 17 16 16 16 16 16 15 15 15 15 15 14 14 13 12 11 11 10 10 10 10 10 10 10 10 11 11 11 11 10 10 9 8 7 7 7 7 7 6 6 7 7 8 8 10 10 10 10 11 12 12 12 12 13 13 14
21 20 18 17 17 15 14 14 15 16 16 16 15 15 15 15 14 14 13 13 12 12 12 11 11 11 11 11 11 10 10 11 11 11 10 10 10 9 8 7 7 7 7 7 6 7 7 7 8 9 10 10 10 10 10 11 11 11 9 8 8 9
20 19 17 16 15 13 12 13 14 15 16 16 15 15 15 15 14 13 13 13 13 13 12 12 12 12 12 12 12 11 11 11 11 11 10 10 9 8 8 7 7 7 7 7 7 7 7 8 8 9 10 9 9 9 10 10 10 9 6 4 5 6
20 17 16 15 14 13 13 13 14 15 16 16 15 15 15 15 14 14 14 14 14 13 13 13 13 13 13 13 12 11 11 11 11 11 11 10 9 9 8 8 8 7 7 7 7 7 7 8 8 9 9 8 8 9 10 10 8 7 3 3 5 4
18 14 14 14 13 14 14 14 15 16 16 16 15 15 15 15 15 14 15 14 14 14 14 14 14 14 13 13 12 12 12 12 12 12 11 10 10 9 9 9 9 8 8 8 8 8 8 8 8 9 8 7 7 8 9 8 7 6 3 4 5 3
15 14 13 14 14 14 14 15 16 17 16 15 16 16 15 15 14 14 14 14 15 15 15 14 14 14 14 13 12 13 13 13 13 13 12 11 10 10 10 9 9 9 9 9 9 8 9 9 8 8 8 7 6 7 7 6 4 5 4 4 4 3
16 15 13 13 14 15 15 15 16 17 16 16 17 16 15 15 14 14 14 15 16 16 16 16 15 15 14 13 13 13 14 14 13 13 12 11 10 10 10 10 10 10 10 10 10 9 9 9 8 8 7 6 6 5 5 3 1 3 3 3 3 3
15 13 12 13 13 14 16 16 16 16 15 15 16 16 15 14 13 13 14 15 16 17 17 17 16 16 15 14 13 14 14 14 14 13 13 12 11 10 10 10 10 10 11 11 10 10 9 8 7 7 7 6 5 4 4 2 1 3 3 3 2 4
12 11 11 12 13 14 16 16 15 14 14 15 16 17 16 15 13 13 14 15 17 18 18 17 17 16 15 15 14 14 14 14 14 14 13 12 11 10 10 9 9 9 10 11 11 10 9 8 7 7 6 6 6 5 4 3 2 3 3 3 2 4
14 12 11 12 13 14 15 15 14 14 14 15 16 17 17 17 15 14 15 16 17 18 18 18 18 17 17 16 15 15 15 15 15 15 14 13 12 10 10 9 8 9 10 11 11 10 9 8 7 8 7 6 6 5 5 4 3 4 4 2 2 4
16 14 14 15 16 15 15 15 14 15 15 16 18 19 19 18 16 15 15 16 17 18 19 19 19 18 17 17 16 16 16 17 16 15 14 13 12 11 10 9 9 9 10 11 11 10 9 8 8 8 7 7 7 6 6 6 4 4 5 3 2 4
18 16 16 17 18 18 18 18 17 19 19 19 19 20 20 19 17 16 16 16 17 18 19 20 20 19 18 18 18 18 17 17 17 16 15 14 13 12 10 10 10 10 11 11 11 10 10 9 9 8 8 8 8 6 6 6 5 5 6 4 4 5
19 18 18 19 21 21 22 22 22 22 22 21 21 21 20 19 18 18 17 17 18 19 20 20 20 19 19 19 19 18 18 18 17 16 16 15 13 12 11 11 11 11 11 11 11 11 11 10 9 9 9 9 9 7 6 6 6 6 6 6 7 6
21 21 21 21 23 24 24 24 24 23 23 22 22 21 20 20 20 19 19 19 19 20 20 20 20 20 20 20 19 19 18 18 17 16 15 14 13 13 12 12 12 12 12 12 12 12 12 11 10 9 9 9 10 9 8 7 7 7 7 8 9 7
24 23 22 24 25 25 25 25 25 24 24 24 23 22 21 21 20 19 19 20 20 21 20 20 19 20 20 20 19 18 18 17 17 16 16 15 15 14 14 14 13 13 13 13 13 12 12 12 12 10 9 9 10 10 9 9 8 8 8 9 9 8
22 21 22 24 25 25 25 25 26 26 25 25 25 24 22 22 21 20 19 19 20 20 20 19 19 19 20 19 19 18 18 18 17 17 17 16 16 15 15 14 14 14 14 14 13 12 12 12 12 11 10 10 10 10 10 10 10 9 9 10 9 9
21 20 21 22 23 24 24 24 25 24 22 23 23 23 22 23 22 20 19 19 20 20 19 18 18 19 19 19 18 18 18 18 18 17 17 17 17 17 16 15 15 15 15 14 13 12 11 12 12 11 11 12 12 11 11 10 10 10 9 10 10 10
21 20 20 22 23 24 22 23 24 22 22 24 24 24 23 23 22 20 19 19 19 19 18 18 18 18 18 18 18 18 18 18 18 18 18 18 18 18 17 16 15 15 15 15 14 13 12 12 12 11 11 12 12 12 12 11 11 10 10 10 11 11
22 20 21 23 23 22 22 23 23 22 24 26 25 25 24 24 22 19 18 19 19 18 17 17 17 17 17 18 18 18 18 18 18 18 18 19 19 18 17 17 16 16 16 16 15 13 13 12 12 11 11 11 11 12 12 12 12 12 11 11 11 11
25 20 21 23 22 21 22 23 24 24 25 25 24 25 25 23 21 19 19 19 19 17 17 17 16 16 17 18 19 19 19 18 18 18 19 19 19 19 18 17 17 17 16 16 15 14 13 12 11 10 10 10 10 11 11 12 12 12 12 11 11 11
28 22 21 23 21 19 20 22 24 26 26 25 24 24 24 22 20 19 19 20 19 18 18 17 16 16 17 18 19 19 19 19 19 19 19 19 19 18 18 18 17 17 16 16 16 15 13 11 9 9 9 10 10 10 10 10 11 11 11 11 10 10
26 22 21 22 21 19 19 21 24 27 28 25 23 23 22 21 19 19 20 20 19 19 19 18 17 17 18 19 19 20 20 21 20 19 19 19 19 18 17 17 17 16 16 16 16 15 13 11 9 8 9 9 9 10 10 11 11 11 11 10 10 9
23 22 21 23 21 19 20 22 24 27 28 24 20 21 21 19 19 19 20 20 21 21 20 18 18 18 19 19 20 20 21 20 19 19 19 19 19 19 18 17 16 16 15 15 15 15 14 12 10 9 9 10 10 11 11 12 12 11 11 10 10 9
26 23 22 22 20 19 20 21 22 23 26 22 18 19 19 19 19 19 20 21 22 22 20 18 18 19 19 19 19 19 19 18 18 18 18 19 19 19 18 17 16 15 14 14 15 15 15 13 11 10 10 11 12 12 13 13 12 12 11 11 11 10
Wind_Direction
244 238 232 229 229 232 236 240 246 251 256 259 262 264 265 267 269 273 277 279 282 284 283 281 283 284 287 290 289 289 284 273 267 264 263 258 245 235 232 235 245 266 289 286 291 310 295 270 283 286 286 287 283 280 279 280 282 284 285 283 281 277
237 230 226 225 227 231 236 241 246 251 254 257 259 260 261 262 265 270 274 280 284 285 284 282 284 287 289 290 288 285 279 268 263 261 260 256 247 239 235 232 244 274 291 281 281 307 303 276 279 285 284 285 282 281 278 279 280 280 280 279 278 276
230 224 223 224 228 233 237 242 246 251 255 256 257 256 257 262 266 269 275 283 286 285 284 285 286 289 290 289 285 281 275 267 261 258 256 254 251 245 239 236 247 270 279 274 274 287 294 286 283 281 280 280 280 278 276 276 275 274 273 273 272 272
225 221 224 226 230 235 239 243 249 253 255 256 255 253 256 264 268 271 278 283 284 285 285 287 289 289 290 289 285 279 272 266 262 260 255 253 255 255 250 247 255 267 270 270 273 277 282 284 282 277 274 277 279 277 275 274 274 275 274 271 269 268
223 223 227 229 232 237 242 246 251 253 254 255 256 258 261 264 266 269 277 282 284 285 287 289 290 289 287 285 282 276 268 263 262 260 257 255 258 263 263 259 262 270 269 268 270 271 271 272 273 271 270 274 277 276 276 276 276 275 275 275 272 270
225 227 229 230 233 239 243 247 250 252 252 254 257 263 267 267 268 272 276 281 283 286 288 288 288 287 285 280 273 267 261 259 258 256 256 257 262 267 266 262 264 266 264 262 260 260 263 264 266 267 268 270 274 276 277 277 276 274 275 276 276 274
225 228 229 231 235 238 242 245 249 251 252 254 257 261 265 268 270 274 276 279 281 284 285 284 286 285 281 274 265 258 256 254 253 253 253 256 262 263 260 257 258 256 251 252 252 254 259 263 265 267 269 272 274 276 275 275 274 274 275 276 276 275
223 227 229 232 235 237 241 245 248 251 254 257 259 260 263 268 270 272 275 277 279 282 283 283 285 283 277 269 259 253 251 250 252 252 251 257 260 258 259 258 252 248 246 246 248 251 256 261 267 270 272 275 276 275 274 273 272 272 274 275 272 271
221 225 228 232 234 237 241 245 247 252 259 261 261 261 262 266 269 271 273 275 277 279 280 283 283 276 269 261 253 250 251 253 254 252 252 257 259 260 264 261 252 246 244 243 245 249 254 262 268 272 273 275 276 277 276 274 273 271 272 271 267 266
220 224 229 233 234 235 238 242 248 255 261 264 262 262 263 265 266 268 270 272 274 275 278 281 277 268 260 254 249 251 254 256 256 251 250 252 257 265 267 261 255 251 248 247 249 252 259 265 268 271 273 276 277 278 277 275 273 272 270 267 265 264
223 229 230 232 231 231 236 242 250 254 259 264 265 265 265 265 265 266 267 268 271 273 276 277 269 259 252 249 248 252 254 254 254 248 247 252 260 266 264 260 258 259 258 257 259 264 268 268 271 273 275 279 281 280 278 275 273 271 269 266 266 265
224 226 224 225 228 233 241 246 250 253 258 264 266 267 266 265 264 264 265 266 268 271 274 271 259 249 245 244 245 249 251 249 249 248 251 258 262 262 258 258 260 263 266 267 270 272 271 273 275 279 285 290 290 287 282 278 274 271 270 269 271 269
218 217 218 225 232 238 244 247 250 252 257 262 264 264 263 262 262 262 264 264 266 268 266 257 245 239 239 240 242 246 250 249 248 250 255 257 255 254 255 257 261 266 271 272 273 273 275 280 284 290 297 300 299 294 288 281 276 275 276 276 276 271
216 217 223 229 234 238 243 245 246 249 253 258 259 260 259 259 260 261 263 263 263 262 254 243 233 231 233 237 243 247 249 247 247 250 250 249 248 249 254 259 263 268 271 271 274 278 284 289 293 298 301 303 303 298 293 286 281 283 282 277 273 270
214 219 223 226 231 233 237 238 238 242 248 253 254 256 257 259 260 261 262 262 260 256 247 237 229 229 232 236 241 243 243 241 242 243 241 241 243 248 253 259 264 267 271 274 278 285 291 296 300 301 300 301 302 301 298 290 288 290 289 282 274 273
215 219 220 221 222 222 228 230 232 237 242 247 249 252 255 257 260 261 261 260 259 255 246 237 231 231 234 235 238 239 238 236 235 234 235 239 244 248 254 258 262 266 273 278 282 287 291 295 298 297 296 298 302 305 302 296 289 287 293 291 274 268
219 220 219 220 219 220 227 229 231 235 238 242 244 248 251 254 257 259 261 260 258 252 243 237 235 236 236 236 238 236 232 229 230 231 233 237 242 247 252 256 261 266 275 279 282 285 286 289 292 291 293 296 303 309 306 297 279 270 286 271 262 265
218 220 220 226 229 229 232 233 236 238 239 240 241 243 246 250 255 257 258 257 252 246 241 239 237 237 236 236 235 230 225 224 228 231 233 235 238 245 250 255 261 266 273 277 279 280 281 284 285 288 292 297 305 313 313 303 270 257 264 254 262 280
215 220 223 233 240 243 243 243 243 242 241 241 241 242 245 249 252 254 254 251 247 243 240 239 237 236 235 235 233 228 225 226 229 232 235 238 241 248 253 257 261 263 267 269 272 274 276 278 280 285 292 298 308 316 320 320 271 253 248 246 272 296
218 222 229 237 243 250 253 252 248 244 241 242 243 242 244 248 249 252 252 250 246 243 241 239 236 235 235 235 233 230 228 229 232 236 240 244 248 254 258 260 261 261 262 263 265 267 269 271 275 282 289 296 306 311 321 343 242 234 236 245 282 296
224 226 238 244 243 249 255 254 247 241 238 238 242 242 240 242 246 251 253 250 246 243 242 239 236 236 237 238 235 233 233 233 236 240 244 247 252 257 259 259 258 259 261 262 262 261 264 268 273 280 286 293 297 296 306 335 211 229 237 254 285 297
237 239 246 247 244 246 252 250 242 238 239 240 243 241 239 240 245 251 252 249 245 243 241 238 236 237 238 240 240 238 238 239 241 243 246 248 253 257 257 256 255 258 260 261 261 259 262 268 274 279 282 287 286 281 283 281 262 261 262 268 290 291
251 250 245 243 246 246 245 245 239 235 236 241 245 243 241 243 246 248 248 246 243 241 239 237 236 237 239 241 242 243 243 243 245 245 246 249 252 254 253 253 253 257 260 261 261 262 265 270 274 277 276 272 267 266 266 261 262 268 270 280 300 287
255 253 244 241 246 243 235 235 237 238 241 244 248 248 248 247 246 244 244 244 242 240 238 236 237 238 240 242 244 245 245 245 244 243 244 246 248 250 252 252 251 253 257 260 262 265 269 271 273 275 272 263 259 258 254 247 245 259 267 265 266 272
250 251 245 238 240 237 231 232 235 242 248 249 249 251 252 250 245 242 242 243 242 239 237 236 237 238 241 244 247 247 245 244 242 240 240 242 246 250 252 251 249 251 255 259 262 266 269 271 271 271 268 264 263 263 254 243 232 245 258 248 246 258
243 242 239 235 234 234 234 235 236 242 248 250 249 250 252 251 246 242 242 243 243 241 238 237 238 240 243 247 249 248 244 242 241 241 241 245 250 253 253 251 250 251 255 259 261 265 268 271 269 265 264 264 261 260 261 250 233 241 247 235 241 255
242 237 234 231 229 232 234 237 241 244 246 248 249 249 251 251 248 246 245 245 245 243 241 240 240 243 247 249 249 246 243 241 242 243 247 252 255 256 255 254 253 253 255 257 259 263 267 269 268 263 261 262 260 259 260 252 238 242 241 235 244 252
240 237 235 232 229 230 233 238 242 241 241 246 248 248 250 252 250 249 248 247 246 244 242 241 242 246 249 249 247 245 243 242 243 246 250 255 257 258 257 255 255 254 255 256 259 262 266 267 267 264 261 259 258 257 257 251 243 243 243 242 249 253
244 242 239 236 235 234 235 239 239 237 240 243 244 246 248 250 249 249 249 246 243 240 240 242 245 248 250 248 246 244 243 243 245 248 253 257 259 258 257 254 254 254 255 257 259 263 266 266 266 264 261 259 258 257 255 253 250 246 247 251 254 255
252 249 247 245 241 238 239 239 234 232 233 235 240 246 247 247 247 246 244 240 237 236 239 245 249 250 247 245 243 243 245 246 249 253 257 260 261 260 257 255 254 255 257 260 262 265 267 265 264 262 259 258 256 256 256 256 255 250 249 254 259 261
261 258 255 251 243 241 241 235 230 228 230 239 249 251 247 247 246 242 238 235 235 237 243 249 250 248 244 242 242 243 246 249 253 258 260 261 261 259 257 256 255 257 260 263 265 267 265 262 263 261 258 258 257 256 257 258 259 258 255 255 259 262
263 262 257 252 244 242 240 233 230 233 239 248 254 251 249 248 244 240 237 235 237 243 249 251 249 246 243 241 241 244 248 253 258 261 261 261 260 258 256 255 255 257 261 265 267 267 265 261 259 258 256 258 260 259 258 258 260 262 261 259 260 262
261 262 257 254 249 247 244 241 240 243 246 249 250 251 250 246 241 237 237 238 242 249 253 253 250 245 241 240 242 245 250 255 259 260 260 260 259 257 254 254 255 259 263 266 267 267 264 258 253 253 255 257 261 260 260 260 260 260 259 257 257 260
263 267 263 257 253 251 249 248 245 244 245 246 247 248 247 243 238 234 237 240 244 250 253 251 247 244 241 242 244 248 252 257 259 259 258 258 259 257 255 255 257 262 265 266 266 265 259 252 247 248 253 257 259 261 259 257 255 254 253 253 255 259
266 272 265 257 253 249 247 247 248 247 244 240 243 244 243 242 237 235 239 242 245 250 249 245 242 241 242 244 247 250 255 258 258 256 255 256 257 256 255 256 259 264 266 265 262 259 253 248 247 249 254 258 258 257 254 251 249 247 248 252 255 258
269 272 262 255 254 252 250 252 255 250 236 231 241 243 239 238 236 238 242 244 247 248 245 241 240 240 241 243 247 251 254 254 252 251 252 254 254 253 252 254 259 263 264 263 257 253 250 248 250 253 254 255 254 251 248 246 245 246 248 251 252 255
268 269 260 255 255 255 254 256 257 242 224 227 247 245 235 233 234 237 242 244 247 245 240 239 239 240 240 242 246 248 248 247 246 247 250 252 252 251 250 252 255 258 261 260 254 249 247 247 248 250 250 250 249 247 245 244 245 247 249 251 254 260
Height
5838 5838 5839 5840 5841 5841 5842 5842 5842 5842 5842 5843 5843 5843 5843 5843 5843 5842 5842 5842 5842 5841 5841 5841 5840 5839 5839 5838 5839 5839 5840 5840 5840 5841 5841 5841 5842 5841 5841 5841 5840 5839 5838 5837 5838 5838 5837 5838 5838 5838 5838 5838 5838 5838 5839 5839 5839 5839 5839 5839 5839 5839
5836 5836 5837 5838 5838 5839 5839 5840 5840 5840 5840 5841 5841 5841 5840 5841 5841 5840 5840 5840 5840 5839 5839 5839 5839 5837 5837 5836 5837 5837 5838 5838 5839 5839 5840 5840 5840 5840 5840 5840 5839 5839 5838 5836 5836 5837 5836 5836 5837 5837 5837 5837 5837 5837 5838 5838 5838 5838 5838 5838 5838 5838
5834 5834 5835 5836 5836 5837 5837 5838 5838 5838 5839 5839 5839 5838 5838 5838 5838 5838 5837 5838 5838 5837 5837 5837 5837 5836 5835 5835 5835 5836 5836 5836 5837 5838 5838 5838 5839 5839 5839 5839 5839 5838 5837 5836 5835 5835 5835 5835 5835 5836 5836 5836 5836 5836 5836 5836 5837 5837 5836 5837 5837 5836
5832 5832 5833 5834 5834 5835 5835 5836 5836 5837 5837 5837 5836 5836 5837 5837 5836 5836 5836 5836 5836 5835 5835 5835 5835 5834 5834 5833 5833 5833 5834 5834 5835 5836 5837 5837 5837 5838 5838 5838 5838 5838 5837 5836 5835 5834 5834 5834 5834 5835 5835 5835 5835 5835 5835 5835 5835 5835 5835 5835 5835 5835
5830 5830 5830 5831 5832 5832 5833 5834 5835 5835 5835 5835 5834 5834 5835 5835 5835 5834 5834 5834 5834 5833 5833 5833 5833 5832 5832 5832 5832 5832 5832 5833 5833 5834 5835 5835 5836 5836 5837 5837 5837 5837 5836 5835 5834 5833 5833 5833 5833 5833 5834 5834 5834 5833 5833 5833 5833 5833 5833 5833 5833 5834
5828 5827 5828 5829 5830 5831 5832 5832 5833 5833 5833 5834 5833 5832 5832 5832 5832 5832 5832 5832 5831 5831 5831 5831 5831 5831 5831 5831 5830 5830 5831 5831 5832 5833 5833 5834 5834 5835 5836 5836 5836 5836 5835 5834 5834 5833 5832 5832 5832 5832 5833 5832 5832 5832 5832 5831 5831 5831 5831 5831 5831 5832
5825 5825 5826 5827 5828 5829 5830 5831 5831 5831 5832 5832 5832 5831 5830 5829 5829 5829 5829 5829 5829 5829 5829 5829 5829 5829 5829 5829 5829 5829 5829 5830 5830 5831 5832 5832 5833 5833 5834 5834 5835 5834 5834 5833 5833 5832 5831 5831 5831 5831 5831 5831 5831 5830 5830 5830 5829 5829 5829 5829 5829 5829
5823 5823 5825 5826 5826 5827 5828 5829 5829 5830 5830 5831 5831 5830 5829 5828 5827 5827 5827 5828 5828 5828 5828 5828 5828 5828 5828 5828 5828 5828 5828 5828 5829 5830 5830 5831 5831 5832 5832 5833 5833 5833 5833 5833 5832 5832 5831 5830 5830 5830 5830 5829 5829 5829 5828 5828 5827 5827 5827 5827 5827 5827
5820 5822 5822 5823 5824 5826 5827 5828 5828 5828 5828 5829 5830 5829 5828 5827 5826 5826 5826 5826 5826 5826 5826 5826 5826 5826 5826 5826 5826 5827 5827 5827 5827 5828 5828 5829 5830 5831 5831 5831 5832 5832 5832 5832 5832 5831 5830 5830 5829 5829 5829 5828 5828 5827 5827 5826 5825 5825 5825 5825 5824 5824
5818 5820 5821 5821 5823 5824 5825 5826 5826 5826 5826 5827 5828 5828 5827 5826 5825 5825 5824 5824 5824 5825 5825 5825 5825 5825 5825 5825 5826 5826 5826 5826 5826 5826 5827 5828 5828 5829 5829 5830 5831 5831 5831 5831 5831 5831 5830 5829 5828 5828 5827 5827 5827 5826 5825 5824 5824 5823 5823 5823 5822 5822
5817 5818 5820 5820 5821 5822 5823 5824 5824 5825 5824 5825 5825 5825 5825 5824 5824 5823 5823 5823 5823 5823 5823 5824 5824 5824 5824 5825 5825 5825 5825 5825 5825 5825 5826 5826 5827 5827 5828 5829 5829 5830 5830 5830 5830 5830 5829 5828 5827 5827 5827 5826 5826 5825 5824 5823 5822 5822 5822 5821 5820 5820
5815 5817 5818 5818 5819 5820 5821 5822 5822 5822 5823 5823 5823 5823 5823 5822 5822 5821 5821 5821 5821 5822 5822 5822 5823 5823 5824 5824 5824 5824 5824 5824 5824 5825 5825 5825 5825 5826 5826 5827 5828 5828 5829 5829 5829 5829 5828 5827 5827 5826 5826 5825 5825 5824 5823 5822 5821 5820 5820 5820 5819 5819
5813 5814 5815 5816 5817 5818 5819 5819 5820 5820 5821 5821 5821 5821 5820 5820 5820 5820 5820 5820 5820 5820 5820 5821 5822 5822 5823 5823 5823 5823 5823 5823 5823 5824 5824 5824 5824 5825 5825 5826 5827 5827 5827 5828 5828 5828 5827 5826 5826 5825 5825 5824 5824 5823 5822 5821 5820 5819 5819 5819 5818 5818
5812 5811 5812 5814 5815 5816 5816 5816 5817 5818 5818 5818 5819 5818 5818 5818 5818 5818 5818 5818 5819 5819 5819 5820 5821 5821 5822 5822 5822 5822 5822 5823 5823 5823 5823 5824 5824 5824 5825 5825 5826 5826 5826 5827 5827 5826 5826 5826 5825 5825 5824 5824 5823 5822 5821 5820 5819 5818 5818 5818 5817 5816
5809 5809 5810 5812 5813 5813 5813 5814 5814 5815 5816 5816 5816 5816 5816 5816 5816 5816 5816 5817 5817 5817 5817 5818 5819 5820 5821 5821 5821 5821 5822 5822 5822 5822 5823 5823 5823 5823 5824 5824 5825 5825 5825 5825 5825 5825 5825 5825 5824 5824 5824 5823 5822 5822 5820 5819 5817 5817 5818 5818 5817 5816
5807 5807 5808 5809 5810 5810 5810 5811 5812 5813 5813 5813 5814 5814 5814 5814 5814 5814 5815 5815 5815 5816 5816 5817 5818 5819 5819 5820 5820 5821 5821 5821 5821 5822 5822 5822 5822 5823 5823 5823 5824 5824 5824 5824 5824 5824 5824 5824 5824 5824 5823 5823 5822 5821 5819 5818 5817 5816 5817 5818 5817 5817
5806 5806 5808 5808 5808 5809 5809 5810 5810 5811 5810 5811 5811 5811 5811 5811 5812 5812 5813 5813 5814 5814 5814 5815 5816 5817 5818 5819 5819 5820 5820 5820 5821 5821 5821 5821 5822 5822 5822 5822 5823 5823 5823 5823 5823 5823 5823 5823 5823 5823 5822 5822 5821 5820 5818 5817 5816 5816 5817 5817 5816 5817
5806 5807 5808 5808 5808 5808 5808 5809 5809 5809 5809 5809 5809 5808 5809 5809 5810 5810 5811 5812 5812 5812 5813 5814 5815 5816 5817 5818 5818 5819 5819 5820 5820 5820 5820 5821 5821 5821 5821 5821 5821 5821 5821 5821 5821 5821 5822 5822 5822 5822 5822 5821 5820 5819 5818 5817 5816 5815 5817 5816 5816 5817
5806 5807 5807 5808 5807 5806 5807 5808 5808 5808 5807 5807 5807 5806 5807 5807 5808 5809 5809 5810 5810 5811 5812 5812 5814 5815 5816 5817 5818 5818 5819 5819 5819 5819 5820 5820 5820 5820 5820 5820 5820 5820 5820 5820 5820 5821 5821 5821 5821 5821 5821 5820 5820 5819 5818 5817 5816 5816 5816 5816 5817 5818
5804 5805 5806 5806 5806 5805 5806 5806 5807 5807 5807 5806 5805 5805 5805 5805 5806 5807 5808 5808 5809 5809 5810 5811 5812 5813 5815 5816 5816 5817 5818 5818 5818 5818 5819 5819 5819 5819 5819 5819 5819 5819 5819 5819 5819 5820 5820 5820 5821 5820 5820 5820 5819 5819 5818 5817 5816 5816 5816 5816 5817 5818
5802 5803 5804 5803 5803 5804 5805 5805 5805 5806 5806 5805 5804 5803 5803 5803 5804 5805 5806 5807 5807 5808 5809 5810 5811 5812 5813 5814 5815 5816 5816 5817 5817 5817 5818 5818 5818 5818 5818 5818 5818 5818 5818 5818 5818 5819 5819 5819 5820 5819 5819 5819 5819 5818 5818 5817 5816 5816 5816 5817 5817 5817
5801 5802 5802 5802 5802 5802 5803 5803 5804 5804 5804 5804 5803 5802 5801 5801 5802 5803 5804 5805 5806 5806 5807 5808 5810 5811 5812 5813 5814 5815 5815 5816 5816 5816 5816 5816 5817 5817 5817 5817 5818 5818 5818 5817 5818 5818 5818 5818 5819 5818 5818 5819 5818 5818 5817 5817 5817 5816 5816 5817 5817 5817
5799 5800 5801 5801 5801 5801 5802 5802 5803 5803 5803 5802 5801 5800 5800 5800 5800 5801 5802 5803 5804 5805 5806 5807 5808 5810 5811 5812 5813 5814 5814 5814 5815 5815 5815 5815 5815 5816 5816 5816 5817 5817 5817 5817 5817 5817 5817 5817 5818 5818 5818 5818 5818 5817 5817 5817 5817 5817 5816 5816 5817 5816
5797 5799 5799 5799 5799 5799 5799 5800 5801 5800 5801 5801 5800 5799 5798 5798 5799 5799 5800 5801 5802 5803 5804 5806 5807 5808 5810 5811 5812 5812 5813 5813 5813 5813 5814 5814 5814 5815 5815 5815 5815 5816 5816 5816 5816 5816 5817 5817 5817 5817 5817 5817 5817 5817 5816 5816 5817 5816 5815 5816 5816 5815
5795 5797 5797 5797 5797 5796 5796 5797 5798 5798 5798 5798 5797 5796 5796 5797 5797 5797 5798 5799 5801 5802 5803 5804 5806 5807 5808 5809 5810 5811 5811 5812 5812 5812 5812 5813 5813 5813 5814 5814 5814 5815 5815 5815 5815 5815 5816 5816 5816 5816 5816 5816 5816 5816 5815 5815 5816 5815 5815 5816 5815 5814
5793 5793 5793 5793 5794 5793 5793 5793 5795 5796 5796 5796 5794 5793 5794 5795 5795 5796 5797 5798 5799 5801 5802 5803 5804 5806 5807 5808 5808 5809 5810 5810 5810 5811 5811 5811 5812 5812 5812 5813 5813 5813 5814 5814 5814 5814 5815 5815 5815 5815 5815 5815 5815 5814 5814 5814 5815 5814 5814 5815 5814 5813
5789 5789 5790 5790 5790 5790 5790 5790 5791 5793 5794 5793 5792 5791 5792 5792 5793 5794 5796 5797 5798 5799 5800 5802 5803 5804 5805 5806 5807 5808 5808 5809 5809 5809 5809 5810 5810 5811 5811 5811 5812 5812 5813 5813 5813 5813 5813 5813 5814 5814 5814 5814 5814 5814 5813 5814 5814 5813 5813 5814 5813 5813
5785 5786 5788 5788 5787 5787 5788 5788 5789 5790 5791 5791 5790 5789 5790 5790 5791 5793 5794 5795 5797 5798 5799 5801 5802 5803 5804 5805 5806 5806 5807 5807 5808 5808 5808 5809 5809 5809 5810 5810 5810 5811 5812 5812 5812 5813 5812 5812 5812 5813 5813 5813 5813 5813 5813 5813 5813 5813 5813 5813 5812 5812
5782 5784 5786 5786 5785 5785 5785 5786 5787 5788 5789 5788 5788 5788 5788 5788 5790 5791 5792 5794 5795 5796 5798 5799 5801 5802 5803 5804 5804 5805 5805 5806 5807 5807 5807 5808 5808 5808 5809 5809 5809 5810 5810 5811 5811 5811 5811 5811 5811 5812 5812 5812 5811 5812 5812 5812 5812 5812 5812 5812 5812 5812
5781 5783 5783 5783 5783 5782 5783 5784 5784 5786 5786 5785 5784 5785 5786 5787 5788 5789 5791 5792 5793 5795 5797 5798 5799 5801 5801 5802 5803 5804 5804 5805 5805 5806 5806 5807 5807 5807 5808 5808 5808 5808 5809 5809 5810 5810 5810 5810 5809 5810 5811 5811 5811 5811 5811 5811 5812 5812 5812 5811 5811 5811
5779 5781 5781 5780 5780 5780 5781 5782 5782 5783 5784 5782 5782 5783 5784 5785 5787 5788 5789 5791 5792 5794 5795 5797 5798 5799 5800 5801 5802 5802 5803 5804 5804 5805 5805 5806 5806 5806 5806 5806 5807 5807 5808 5808 5808 5809 5809 5809 5808 5808 5809 5810 5810 5810 5810 5810 5811 5811 5811 5811 5811 5811
5776 5778 5777 5776 5777 5778 5779 5780 5780 5781 5782 5781 5781 5781 5782 5784 5786 5787 5788 5790 5791 5792 5794 5795 5796 5798 5799 5799 5800 5801 5801 5802 5803 5803 5804 5804 5804 5804 5804 5805 5805 5806 5806 5806 5807 5807 5808 5808 5807 5807 5808 5808 5808 5809 5809 5809 5810 5810 5810 5810 5810 5810
5773 5775 5774 5772 5775 5777 5778 5779 5779 5778 5779 5779 5779 5780 5781 5783 5784 5786 5787 5788 5790 5791 5792 5793 5795 5796 5797 5798 5799 5799 5800 5801 5801 5802 5802 5802 5803 5803 5803 5803 5803 5804 5804 5805 5805 5806 5806 5806 5806 5806 5806 5806 5807 5807 5807 5808 5808 5809 5809 5809 5809 5809
5770 5772 5772 5770 5772 5774 5776 5777 5777 5776 5776 5776 5777 5778 5780 5782 5784 5785 5786 5787 5788 5789 5790 5791 5793 5794 5795 5796 5797 5798 5798 5799 5799 5800 5800 5801 5801 5801 5801 5801 5802 5802 5803 5803 5803 5804 5804 5804 5804 5804 5805 5805 5805 5805 5806 5806 5807 5807 5807 5808 5808 5808
5766 5769 5770 5768 5769 5771 5772 5773 5774 5774 5774 5775 5776 5777 5779 5781 5783 5784 5785 5786 5787 5787 5788 5789 5790 5792 5793 5794 5795 5796 5797 5797 5798 5798 5798 5799 5799 5800 5800 5800 5800 5801 5801 5801 5801 5802 5802 5802 5803 5803 5803 5803 5804 5804 5805 5805 5805 5806 5806 5807 5807 5807
5764 5766 5767 5767 5767 5768 5769 5770 5771 5772 5773 5774 5774 5775 5778 5780 5782 5783 5784 5785 5786 5786 5786 5787 5789 5790 5791 5792 5793 5794 5795 5795 5796 5796 5796 5797 5797 5798 5798 5799 5799 5799 5799 5799 5799 5800 5800 5801 5801 5802 5802 5802 5803 5803 5803 5804 5804 5805 5805 5805 5805 5805
5762 5763 5764 5765 5766 5767 5767 5768 5768 5769 5771 5773 5773 5774 5776 5777 5779 5781 5782 5783 5783 5784 5785 5786 5787 5788 5789 5790 5791 5792 5793 5794 5794 5794 5795 5795 5796 5796 5797 5797 5797 5797 5797 5797 5798 5798 5799 5799 5800 5800 5801 5801 5801 5802 5802 5802 5803 5803 5804 5804 5804 5803